Location: Kitchener-Waterloo
(43.4500°N, 80.5000°W)
Time: 14:50:04
(UTC-05:00)

Daily predictions for brighter satellites

Satellite Brightness Start Highest point End
(mag) Time Altitude Azimuth Time Altitude Azimuth Time Altitude Azimuth
SKYMED 2 3.7 18:14:26 10° NNE 18:18:43 57° E 18:22:59 10° S
USA 215 3.9 18:15:15 10° ENE 18:21:16 38° SE 18:27:15 10° SSW
H-2A R/B 3.7 18:20:52 10° SE 18:24:14 28° ENE 18:27:37 10° N
Cosmos 2233 Rocket 4.3 18:18:59 10° N 18:25:02 45° ENE 18:30:59 10° SSE
NOSS 3-2 (C) 4.3 18:20:30 10° SSE 18:25:25 28° ESE 18:30:42 10° NE
Cosmos 2016 Rocket 4.2 18:19:06 10° N 18:25:31 85° W 18:31:50 10° S
Cosmos 2297 Rocket 3.3 18:23:57 10° SSE 18:28:22 24° ESE 18:32:47 10° NE
Cosmos 923 Rocket 4.4 18:24:09 10° SSW 18:29:21 71° WNW 18:34:39 10° NNE
MONITOR-E 4.0 18:27:36 10° SSE 18:30:36 67° ENE 18:33:38 10° N
SeaSat 1 3.3 18:26:56 10° ESE 18:31:09 29° NE 18:35:24 10° N
SPOT 3 Rocket 3.7 18:27:15 10° SSE 18:32:19 56° ENE 18:37:26 10° N
FENGYUN 3A 3.7 18:28:18 10° SSE 18:33:40 82° ENE 18:39:07 10° NNW
NOAA 12 4.1 18:30:51 10° SSE 18:36:06 74° ENE 18:41:26 10° N
Ariane Rocket 4.5 18:31:18 10° S 18:36:07 42° W 18:40:59 10° NNW
Cosmos 1825 4.1 18:34:19 10° SW 18:37:46 34° WNW 18:41:15 10° N
ALOS 2.3 18:33:09 10° SSE 18:37:49 86° WSW 18:42:32 10° NNW
Cosmos 1869 Rocket 3.8 18:34:57 10° SSW 18:39:16 75° W 18:43:36 10° N
Cosmos 2056 Rocket 3.7 18:35:29 10° NNW 18:40:48 55° ENE 18:46:07 10° SE
Cosmos 2112 Rocket 4.2 18:35:29 10° SSW 18:40:49 84° WNW 18:46:13 10° NNE
Cosmos 2333 Rocket 2.2 18:35:22 10° NNW 18:41:05 78° ENE 18:46:44 10° SSE
Cosmos 1812 3.9 18:40:26 10° NNE 18:43:33 23° ENE 18:46:39 10° SE
Abrixas rocket 2.7 18:40:56 10° WNW 18:44:04 55° SSW 18:47:10 10° SE
Cosmos 2221 Rocket 3.8 18:40:04 10° N 18:44:29 78° W 18:48:53 10° S
Cosmos 1452 Rocket 4.5 18:42:42 10° N 18:47:09 27° ENE 18:51:33 10° ESE
COSMOS 2428 3.6 18:41:36 10° NNW 18:47:12 56° WSW 18:52:46 10° S
Cosmos 2285 Rocket 4.0 18:43:29 10° S 18:49:41 61° ESE 18:55:58 10° NNE
Lacrosse 4 Rocket 3.5 18:46:16 10° NW 18:50:00 31° WSW 18:53:46 10° S
Cosmos 2082 4.3 18:47:48 10° SSE 18:52:47 34° ESE 18:57:48 10° NE
USA 267 3.9 18:50:11 13° E 18:55:29 39° NNE 19:01:27 10° NW
Cosmos 405 3.6 18:54:52 10° SSE 18:58:01 32° E 19:01:11 10° NNE
Cosmos 2084 Rocket 3.8 18:54:19 10° SSW 18:58:32 46° ESE 19:01:50 15° NE
Meteor 1-27 Rocket 4.2 18:53:19 10° NNW 18:59:09 72° W 19:05:02 10° S
Cosmos 1447 Rocket 4.5 18:54:38 10° S 19:00:52 73° E 19:07:11 10° NNE
BREEZE-M DEB (TANK) 2.5 18:59:50 10° NW 19:02:08 31° NNE 19:03:07 23° ENE
CENTAUR R/B 3.5 19:00:50 10° SSE 19:05:21 23° ESE 19:07:42 18° E
ERS-2 2.0 19:02:23 10° SSE 19:06:02 67° ENE 19:09:43 10° N
EO 1 Del DPAF 3.3 19:02:29 10° NNE 19:06:20 84° WNW 19:10:09 10° SSW
COSMO-SKYMED 1 3.9 19:02:40 10° N 19:06:48 43° WNW 19:10:54 10° SW
CZ-4C R/B 4.4 19:03:40 10° NNW 19:07:34 16° NNE 19:11:16 11° NE
FengYun 1-2 T 4.1 19:02:11 10° SSE 19:07:42 75° ENE 19:13:12 10° N
Cosmos 1624 Rocket 4.1 19:05:32 10° NNW 19:10:47 80° WSW 19:15:59 10° SSE
Cosmos 1980 3.7 19:05:50 10° NNW 19:11:35 86° ENE 19:17:16 10° SSE
SJ-6B 2.7 19:17:06 10° SSE 19:20:46 55° ENE 19:24:30 10° N
FALCON 9 R/B 4.5 19:13:47 10° WSW 19:21:10 58° S 19:39:29 21° ESE
Iridium 4 Rocket 3.5 19:19:13 10° N 19:24:12 48° E 19:28:43 10° SSE
NOSS 3-2 (A) 3.5 19:19:09 10° SW 19:25:05 85° NW 19:31:43 10° NE
Cosmos 158 Rocket 4.3 19:21:22 10° SSE 19:25:47 35° ESE 19:27:14 29° ENE
Thor Agena Rocket 3.6 19:21:25 10° NNE 19:26:25 51° E 19:31:19 10° S
ATLAS 3B R/B 3.4 19:22:27 10° SW 19:29:32 56° NW 19:36:21 10° NNE
Meteor 1-14 Rocket 4.2 19:24:04 10° S 19:29:41 62° E 19:35:30 10° NNE
Okean 1 4.5 19:28:06 10° N 19:30:29 27° NE 19:30:29 27° NE
Cosmos 1633 2.7 19:28:42 10° S 19:31:45 47° ESE 19:31:45 47° ESE
Aureole 3 4.2 19:27:42 10° S 19:34:11 83° E 19:39:20 10° N
USA 32 4.1 19:32:58 10° SSE 19:38:00 50° E 19:43:03 10° NNE
Cosmos 1674 Rocket 3.6 19:33:58 10° N 19:38:21 79° W 19:42:40 10° S
Cosmos 44 Rocket 3.7 19:35:59 10° NNW 19:40:47 43° NE 19:41:32 41° ENE
CZ-3 Stage 3 4.1 19:40:29 10° SW 19:41:49 11° SSW 19:42:57 10° S
Shenzhou-11 Module 3.6 19:39:59 10° W 19:42:35 27° SSW 19:42:47 26° SSW
Cosmos 1908 Rocket 3.5 19:39:49 10° S 19:44:15 66° E 19:48:42 10° NNE
Resurs 1-3 3.9 19:44:57 45° NE 19:44:57 45° NE 19:48:47 10° N
Tiangong 2 1.5 19:42:21 10° W 19:45:13 60° SW 19:45:13 60° SW
Resurs 01 Rocket 1.9 19:46:35 47° NE 19:46:35 47° NE 19:50:30 10° N
Cosmos 2219 Rocket 4.3 19:42:25 10° NW 19:47:07 27° WSW 19:51:45 10° SSW
Envisat 2.9 19:43:00 10° SSE 19:48:05 81° ENE 19:53:11 10° N
Cosmos 1513 Rocket 4.4 19:44:54 10° N 19:51:20 80° E 19:57:36 10° S
USA 186 4.3 19:55:03 14° N 19:55:03 14° N 19:55:34 10° N
Lacrosse 5 2.6 19:49:11 10° WNW 19:54:04 49° SW 19:56:55 23° SSE
Cosmos 1733 Rocket 4.4 19:50:59 10° SW 19:55:01 39° WNW 19:59:05 10° N
Meteor 1-18 Rocket 4.1 19:50:05 10° N 19:55:45 89° E 20:01:19 10° S
Cosmos 2237 Rocket 3.3 19:51:38 10° NW 19:56:58 44° WSW 20:02:14 10° S
Cosmos 2227 Rocket 2.7 19:51:44 10° SW 19:57:18 59° WNW 20:02:54 10° NNE
SL-16 R/B 2.1 19:52:17 10° NNW 19:58:00 79° ENE 20:00:05 41° SE
Tsikada Rocket 4.1 19:53:36 10° SSE 19:59:47 54° E 20:06:01 10° NNE
Meteor 1-20 Rocket 4.2 19:55:37 10° S 20:01:17 87° W 20:07:07 10° N
CRYOSAT 2 4.2 19:57:09 10° N 20:02:04 85° E 20:06:56 10° S
USA 215 3.5 20:00:22 24° NE 20:04:31 68° NW 20:10:59 10° WSW
CZ-2D R/B 4.2 20:03:43 16° S 20:06:37 48° W 20:10:25 10° NNW
SeaSat 1 3.5 20:03:50 10° S 20:08:30 43° WSW 20:13:13 10° NW
Cosmos 921 Rocket 4.0 20:05:02 10° N 20:07:56 37° N 20:07:56 37° N
Cosmos 1939 Rocket 4.2 20:12:02 32° N 20:12:02 32° N 20:14:21 10° N
Cosmos 1975 Rocket 4.3 20:06:07 10° N 20:08:25 30° N 20:08:25 30° N
Cosmos 2297 Rocket 2.9 20:06:31 10° SW 20:12:00 52° WNW 20:17:34 10° NNE
ARGOS Delta rocket 4.2 20:10:22 10° N 20:15:21 64° WNW 20:20:01 10° SSW
NOSS 3-2 (C) 4.0 20:09:55 10° SW 20:15:49 57° NW 20:20:33 19° NNE
Meteor 1-19 Rocket 4.4 20:12:18 10° N 20:16:46 54° NNE 20:16:46 54° NNE
CZ-3C R/B 4.5 20:16:50 10° S 20:19:09 15° SSE 20:19:09 15° SSE
Sich 1 Rocket 4.1 20:19:55 10° SSW 20:28:44 11° N 20:28:52 10° N
Cosmos 44 3.7 20:24:27 10° NW 20:29:25 62° WSW 20:29:27 62° WSW
USA 267 3.1 20:37:32 76° SSE 20:38:07 86° SW 20:44:42 10° NW
Spot 2 Rocket 4.0 20:39:20 57° WNW 20:39:20 57° WNW 20:43:38 10° NNW
CENTAUR R/B 2.7 20:49:08 10° SW 20:54:59 69° WNW 20:54:59 69° WNW
CZ-4C R/B 3.8 20:51:40 10° NNW 20:56:28 35° NNE 20:56:28 35° NNE
Resurs 01 Rocket 4.4 21:24:08 15° WNW 21:24:08 15° WNW 21:25:48 10° NW
